Weather History for Jaipur, India

Change the Weather History Date:

Saturday, December 29, 2012

  Actual Average Record
Temperature  
Mean Temperature 60 °F -  
Max Temperature 72 °F - - ()
Min Temperature 47 °F - - ()
Degree Days  
Heating Degree Days 6    
Growing Degree Days 10 (Base 50)    
Moisture  
Dew Point 46 °F    
Average Humidity 62    
Maximum Humidity 87    
Minimum Humidity 36    
Precipitation  
Precipitation 0.00 in - - ()
Sea Level Pressure  
Sea Level Pressure 29.94 in    
Wind  
Wind Speed 3 mph ()    
Max Wind Speed 8 mph    
Max Gust Speed -    
Visibility 1.3 miles    
Events      
T = Trace of Precipitation, MM = Missing Value Source: Averaged Metar Reports

Daily Weather History Graph

Daily Weather History Graph

Search for Another Location

Airport:

Trip Planner

Search our weather history database for the weather conditions in past years. The results will help you decide how hot, cold, wet, or windy it might be!

Date:

Astronomy

Dec. 29, 2012 Rise Set
Actual Time 7:14 AM IST 5:43 PM IST
Civil Twilight 6:49 AM IST 6:08 PM IST
Nautical Twilight 6:20 AM IST 6:37 PM IST
Astronomical Twilight 5:51 AM IST 7:05 PM IST
Moon 6:42 PM IST (12/29) 7:36 AM IST (12/29)
Length of Visible Light 11h 19m
Length of Day
10h 28m
Full, 99% of the Moon is Illuminated
Dec 29
Full
Jan 5
Last Quarter
Jan 12
New
Jan 19
First Quarter
Jan 27
Full

Hourly Weather History & Observations

Time (IST) Temp. Dew Point Humidity Pressure Visibility Wind Dir Wind Speed Gust Speed Precip Events Conditions
12:00 AM 55.4 °F 46.4 °F 72% 29.89 in 1.1 mi East 6.9 mph - N/A   Mist
1:00 AM 53.6 °F 46.4 °F 77% 29.89 in 1.1 mi Variable 2.3 mph - N/A   Mist
2:00 AM 50.0 °F 44.6 °F 82% 29.89 in 1.1 mi East 6.9 mph - N/A   Mist
2:30 AM 52 °F 47 °F 76% 29.89 in 1 mi East 4.6 mph - -   Mist
2:30 AM 53.6 °F 46.4 °F 77% 29.89 in 1.2 mi ENE 4.6 mph - N/A   Mist
5:00 AM 50.0 °F 44.6 °F 82% 29.89 in 1.2 mi Calm Calm - N/A   Mist
5:30 AM 51.8 °F 46.4 °F 82% 29.89 in 1.2 mi Calm Calm - N/A   Mist
6:00 AM 50.0 °F 44.6 °F 82% 29.92 in 1.2 mi Calm Calm - N/A   Mist
6:30 AM 48.2 °F 44.6 °F 87% 29.92 in 1.2 mi Calm Calm - N/A   Mist
7:00 AM 50.0 °F 46.4 °F 87% 29.92 in 1.1 mi Calm Calm - N/A   Mist
8:00 AM 50.0 °F 44.6 °F 82% 29.92 in 1.1 mi Calm Calm - N/A   Mist
8:30 AM 52 °F 47 °F 76% 29.94 in 1 mi Calm Calm - -   Mist
9:00 AM 57.2 °F 46.4 °F 67% 29.98 in 1.1 mi Calm Calm - N/A   Mist
10:00 AM 60.8 °F 44.6 °F 55% 30.01 in 1.2 mi East 6.9 mph - N/A   Mist
11:00 AM 62.6 °F 44.6 °F 52% 30.01 in 1.9 mi East 6.9 mph - N/A   Haze
11:30 AM 65 °F 44 °F 36% 29.95 in 1 mi ENE 4.6 mph - -   Haze
12:00 PM 66.2 °F 44.6 °F 46% 30.04 in 1.9 mi East 5.8 mph - N/A   Haze
1:00 PM 68.0 °F 44.6 °F 43% 29.95 in 1.9 mi Variable 4.6 mph - N/A   Haze
2:00 PM 69.8 °F 44.6 °F 40% 29.92 in 1.9 mi Variable 3.5 mph - N/A   Haze
2:30 PM 72 °F 58 °F 53% 29.87 in 1 mi East 4.6 mph - -  
3:00 PM 69.8 °F 44.6 °F 40% 29.92 in 1.9 mi SE 4.6 mph - N/A   Haze
4:00 PM 69.8 °F 44.6 °F 40% 29.89 in 1.9 mi SSE 3.5 mph - N/A   Haze
5:00 PM 68.0 °F 46.4 °F 46% 29.89 in 1.9 mi Variable 3.5 mph - N/A   Haze
6:00 PM 66.2 °F 46.4 °F 49% 29.92 in 1.9 mi ESE 3.5 mph - N/A   Haze
7:00 PM 62.6 °F 46.4 °F 55% 29.95 in 1.2 mi NE 5.8 mph - N/A   Haze
8:00 PM 60.8 °F 44.6 °F 55% 29.98 in 1.2 mi NNE 6.9 mph - N/A   Haze
8:30 PM 60 °F 43 °F 41% 29.95 in 1 mi NE 4.6 mph - -   Haze
9:00 PM 59.0 °F 44.6 °F 59% 29.98 in 1.2 mi NNE 8.1 mph - N/A   Smoke
10:00 PM 57.2 °F 44.6 °F 63% 29.98 in 1.2 mi NE 4.6 mph - N/A   Smoke
11:00 PM 57.2 °F 44.6 °F 63% 29.98 in 1.2 mi NE 4.6 mph - N/A   Smoke
11:30 PM 57 °F 44 °F 52% 29.97 in 1 mi NNE 4.6 mph - -   Smoke